Location: Catacaguana
(10.4120°N, 66.7591°W)
Time: 05:09:29
(UTC+00:00)

Lacrosse 4 Rocket - Pass Details

Date: 27 May 2022
Orbit: 541 x 611 km, 68.0° (Epoch: 26 June)

Event Time Altitude Azimuth Distance (km) Brightness Sun altitude
Exits shadow 07:55:40 13° 348° (NNW) 1,710 4.0 -29.2°
Drops below altitude 10° 07:56:15 10° 353° (N) 1,907 4.3 -29.1°
Sets 07:58:39 0° 4° (N) 2,794 5.4 -28.5°
